167015294,2008-05-28T07:53:32.632,-1859.22, 9364805,  83.30, -22.82, 2574332, 2574206, 2574073, 2574214, 2574372,     104,    1.55,   0.115,   13.21,   33.45,    0.13
167015295,2008-05-28T07:53:37.632,-1854.22, 9336444,  83.36, -22.79, 2574233, 2574221, 2574125, 2574264, 2574274,      83,    2.21,   0.099,   21.35,   39.93,    0.27
167015296,2008-05-28T07:53:41.665,-1850.18, 9313690,  83.40, -22.77, 2574215, 2574195, 2574085, 2574224, 2574255,      89,    1.88,   0.102,   18.80,   35.22,    0.15
167015297,2008-05-28T07:53:45.699,-1846.15, 9290846,  83.45, -22.76, 2574232, 2574217, 2574099, 2574237, 2574272,      98,    1.80,   0.097,   18.10,   35.58,    0.16
167015298,2008-05-28T07:53:49.733,-1842.12, 9267912,  83.49, -22.75, 2574217, 2574203, 2574074, 2574212, 2574257,     116,    1.53,   0.099,   16.82,   34.83,    0.15
167015299,2008-05-28T07:53:53.767,-1838.08, 9245037,  83.53, -22.74, 2574214, 2574206, 2574066, 2574204, 2574253,     113,    1.15,   0.109,   17.58,   33.00,    0.12
167015300,2008-05-28T07:53:57.801,-1834.05, 9222253,  83.58, -22.73, 2574238, 2574204, 2574087, 2574224, 2574278,     109,    1.85,   0.106,   19.00,   37.32,    0.20
167015301,2008-05-28T07:54:01.835,-1830.01, 9199409,  83.62, -22.73, 2574223, 2574204, 2574030, 2574167, 2574262,     146,    1.24,   0.118,   14.40,   30.79,    0.02
167015302,2008-05-28T07:54:06.632,-1825.22, 9172307,  83.67, -22.71, 2574214, 2574210, 2574089, 2574225, 2574253,     105,    2.02,   0.117,   19.15,   34.96,    0.19
167015303,2008-05-28T07:54:10.666,-1821.18, 9149463,  83.72, -22.69, 2574210, 2574205, 2574049, 2574184, 2574249,     127,    1.45,   0.115,   14.89,   32.65,    0.08
167015304,2008-05-28T07:54:14.700,-1817.15, 9126679,  83.76, -22.68, 2574226, 2574196, 2574072, 2574208, 2574265,     109,    1.84,   0.122,   16.83,   33.56,    0.10
167015305,2008-05-28T07:54:18.733,-1813.12, 9103805,  83.81, -22.67, 2574233, 2574229, 2574086, 2574221, 2574272,     125,    1.70,   0.113,   17.26,   35.41,    0.15
167015306,2008-05-28T07:54:22.767,-1809.08, 9081081,  83.86, -22.66, 2574215, 2574194, 2574087, 2574222, 2574253,     101,    1.86,   0.122,   17.34,   35.99,    0.21
167015307,2008-05-28T07:54:26.801,-1805.05, 9058236,  83.91, -22.64, 2574225, 2574219, 2574124, 2574258, 2574263,      92,    2.72,   0.111,   18.51,   38.48,    0.27
167015308,2008-05-28T07:54:30.835,-1801.01, 9035512,  83.95, -22.63, 2574210, 2574140, 2574027, 2574160, 2574248,     111,    1.35,   0.115,   14.31,   30.20,    0.10
167015309,2008-05-28T07:54:35.632,-1796.22, 9008351,  84.01, -22.61, 2574216, 2574202, 2574069, 2574202, 2574254,     115,    1.70,   0.113,   15.53,   33.58,    0.16
167015310,2008-05-28T07:54:39.666,-1792.18, 8985807,  84.06, -22.60, 2574213, 2574189, 2574037, 2574169, 2574251,     119,    0.88,   0.107,   15.41,   32.20,    0.05
167015311,2008-05-28T07:54:43.700,-1788.15, 8962813,  84.11, -22.58, 2574215, 2574202, 2574075, 2574206, 2574253,     111,    1.67,   0.107,   15.57,   32.71,    0.11
167015312,2008-05-28T07:54:47.734,-1784.12, 8940089,  84.15, -22.57, 2574216, 2574161, 2574046, 2574177, 2574254,     105,    1.31,   0.103,   16.20,   32.98,    0.03
167015313,2008-05-28T07:54:51.768,-1780.08, 8917274,  84.22, -22.55, 2574214, 2574209, 2574066, 2574196, 2574253,     108,    1.06,   0.091,   14.59,   27.58,    0.00
167015314,2008-05-28T07:54:55.801,-1776.05, 8894550,  84.26, -22.53, 2574219, 2574193, 2574071, 2574200, 2574257,     106,    1.46,   0.084,   16.32,   33.08,    0.13
167015315,2008-05-28T07:54:59.835,-1772.01, 8871826,  84.31, -22.51, 2574206, 2574167, 2574068, 2574197, 2574244,      96,    2.30,   0.083,   16.17,   34.49,    0.18
167015316,2008-05-28T07:55:04.631,-1767.22, 8844724,  84.37, -22.49, 2574223, 2574210, 2574077, 2574205, 2574261,     111,    1.66,   0.079,   15.49,   34.04,    0.14
167015317,2008-05-28T07:55:08.665,-1763.18, 8822030,  84.43, -22.47, 2574215, 2574161, 2574044, 2574172, 2574254,     107,    1.16,   0.070,   14.80,   31.93,    0.09
167015318,2008-05-28T07:55:12.699,-1759.15, 8799306,  84.48, -22.45, 2574221, 2574179, 2574069, 2574196, 2574259,      96,    1.67,   0.067,   16.10,   33.20,    0.13
167015319,2008-05-28T07:55:16.733,-1755.12, 8776521,  84.54, -22.43, 2574224, 2574217, 2574096, 2574223, 2574263,     112,    2.14,   0.062,   17.04,   35.67,    0.19
167015320,2008-05-28T07:55:20.767,-1751.08, 8753797,  84.60, -22.41, 2574219, 2574205, 2574109, 2574235, 2574257,      91,    2.55,   0.067,   17.96,   35.31,    0.22
167015321,2008-05-28T07:55:24.801,-1747.05, 8731073,  84.66, -22.39, 2574227, 2574229, 2574098, 2574223, 2574265,     110,    1.74,   0.068,   16.42,   34.41,    0.13
167015322,2008-05-28T07:55:28.835,-1743.01, 8708349,  84.72, -22.37, 2574248, 2574211, 2574099, 2574224, 2574286,      95,    1.55,   0.078,   16.75,   33.73,    0.13
167015323,2008-05-28T07:55:33.630,-1738.22, 8681368,  84.74, -22.33, 2574207, 2574187, 2574071, 2574195, 2574246,     100,    1.36,   0.030,   13.73,   26.04,    0.06
167015324,2008-05-28T07:55:37.664,-1734.18, 8658673,  84.76, -22.30, 2574211, 2574211, 2574128, 2574252, 2574250,      64,    1.61,   0.012,   17.51,   25.77,    0.23
167015325,2008-05-28T07:55:41.698,-1730.15, 8635979,  84.77, -22.28, 2574214, 2574190, 2574078, 2574201, 2574252,     105,    2.19,   0.057,   15.17,   31.37,    0.16
167015326,2008-05-28T07:55:45.732,-1726.12, 8613285,  84.79, -22.24, 2574238, 2574224, 2574131, 2574254, 2574274,     102,    2.86,   0.093,   18.05,   37.55,    0.27
167015327,2008-05-28T07:55:49.766,-1722.08, 8590620,  84.85, -22.21, 2574238, 2574225, 2574105, 2574228, 2574274,     113,    2.26,   0.099,   17.36,   35.75,    0.20
167015328,2008-05-28T07:55:53.800,-1718.05, 8567986,  84.91, -22.18, 2574229, 2574210, 2574087, 2574210, 2574265,     117,    2.12,   0.098,   14.42,   33.46,    0.15
167015329,2008-05-28T07:55:57.834,-1714.01, 8545292,  84.98, -22.15, 2574241, 2574235, 2574121, 2574243, 2574277,     105,    2.65,   0.102,   17.74,   36.66,    0.22
167015330,2008-05-28T07:56:02.631,-1709.22, 8518370,  85.06, -22.15, 2574253, 2574202, 2574081, 2574202, 2574290,     112,    1.99,   0.070,   16.26,   33.25,    0.15
167015331,2008-05-28T07:56:06.664,-1705.18, 8495766,  85.14, -22.16, 2574219, 2574171, 2574050, 2574170, 2574257,     116,    1.67,   0.052,   12.85,   30.66,    0.11
167015332,2008-05-28T07:56:10.698,-1701.15, 8473072,  85.20, -22.17, 2574229, 2574225, 2574099, 2574218, 2574266,     122,    1.73,   0.053,   15.41,   33.91,    0.18
167015333,2008-05-28T07:56:14.732,-1697.12, 8450407,  85.27, -22.17, 2574275, 2574226, 2574093, 2574212, 2574311,     123,    1.85,   0.076,   14.68,   33.67,    0.13
167015334,2008-05-28T07:56:18.766,-1693.08, 8427773,  85.30, -22.18, 2574230, 2574220, 2574063, 2574182, 2574266,     137,    1.39,   0.065,   12.48,   31.55,    0.05
167015335,2008-05-28T07:56:22.800,-1689.05, 8405139,  85.32, -22.18, 2574243, 2574213, 2574062, 2574181, 2574280,     121,    1.28,   0.068,   13.60,   32.13,    0.03
167015336,2008-05-28T07:56:26.834,-1685.01, 8382564,  85.35, -22.17, 2574249, 2574185, 2574059, 2574178, 2574285,     110,    1.34,   0.085,   12.35,   30.01,    0.08
167015337,2008-05-28T07:56:31.631,-1680.22, 8355703,  85.38, -22.16, 2574263, 2574151, 2574044, 2574162, 2574298,     111,    1.29,   0.100,   12.68,   29.24,    0.09
167015338,2008-05-28T07:56:35.665,-1676.18, 8333039,  85.40, -22.10, 2574268, 2574204, 2574071, 2574189, 2574303,     125,    1.62,   0.086,   13.34,   31.94,    0.09
167015339,2008-05-28T07:56:39.698,-1672.15, 8310464,  85.43, -22.06, 2574249, 2574143, 2574011, 2574128, 2574284,     138,    0.84,   0.109,   10.57,   25.31,    0.07
167015340,2008-05-28T07:56:43.732,-1668.12, 8287860,  85.50, -22.01, 2574259, 2574121, 2574014, 2574131, 2574294,     117,    0.66,   0.094,   10.98,   23.92,    0.02
167015341,2008-05-28T07:56:47.766,-1664.08, 8265346,  85.58, -21.96, 2574269, 2574115, 2574031, 2574147, 2574303,     121,    1.15,   0.093,   11.12,   28.03,    0.02
167015342,2008-05-28T07:56:51.800,-1660.05, 8242681,  85.66, -21.95, 2574255, 2574199, 2574074, 2574189, 2574290,     121,    1.86,   0.072,   14.35,   32.72,    0.11
167015343,2008-05-28T07:56:55.834,-1656.01, 8220107,  85.74, -21.94, 2574225, 2574191, 2574062, 2574176, 2574261,     123,    1.57,   0.065,   12.67,   30.25,    0.11
167015344,2008-05-28T07:57:00.631,-1651.22, 8193335,  85.83, -21.92, 2574229, 2574135, 2574029, 2574144, 2574264,     122,    1.04,   0.084,   11.91,   29.41,    0.03
167015345,2008-05-28T07:57:04.665,-1647.18, 8170701,  85.87, -21.91, 2574222, 2574204, 2574049, 2574162, 2574257,     128,    1.10,   0.069,   12.56,   30.15,    0.02
167015346,2008-05-28T07:57:08.699,-1643.15, 8148186,  85.91, -21.89, 2574222, 2574205, 2574061, 2574174, 2574258,     125,    1.02,   0.058,   13.83,   30.76,    0.04
167015347,2008-05-28T07:57:12.733,-1639.12, 8125642,  85.94, -21.87, 2574229, 2574199, 2574081, 2574194, 2574264,     113,    1.52,   0.058,   12.53,   29.82,    0.14
167015348,2008-05-28T07:57:16.766,-1635.08, 8103098,  85.98, -21.86, 2574243, 2574211, 2574082, 2574194, 2574278,     118,    1.64,   0.055,   13.57,   32.95,    0.13
167015349,2008-05-28T07:57:20.800,-1631.05, 8080583,  86.01, -21.84, 2574226, 2574183, 2574033, 2574145, 2574261,     137,    0.70,   0.068,    9.75,   25.99,    0.05
167015350,2008-05-28T07:57:24.834,-1627.01, 8058039,  86.06, -21.82, 2574224, 2574202, 2574064, 2574175, 2574259,     122,    1.26,   0.074,   11.08,   29.92,    0.05
167015351,2008-05-28T07:57:29.630,-1622.22, 8031298,  86.10, -21.79, 2574226, 2574196, 2574073, 2574184, 2574260,     121,    1.51,   0.095,   13.74,   30.47,    0.12
167015352,2008-05-28T07:57:33.664,-1618.19, 8008723,  86.15, -21.77, 2574225, 2574209, 2574086, 2574196, 2574258,     108,    1.38,   0.099,   12.70,   30.51,    0.12
167015353,2008-05-28T07:57:37.698,-1614.15, 7986269,  86.18, -21.75, 2574216, 2574185, 2574065, 2574177, 2574248,      99,    1.43,   0.120,   13.38,   31.21,    0.11
167015354,2008-05-28T07:57:41.732,-1610.12, 7963784,  86.23, -21.74, 2574237, 2574181, 2574062, 2574173, 2574269,     106,    1.11,   0.127,   14.21,   31.38,    0.09
167015355,2008-05-28T07:57:45.766,-1606.08, 7941300,  86.29, -21.71, 2574227, 2574162, 2574060, 2574171, 2574260,     100,    1.18,   0.120,   13.06,   30.69,    0.06
167015356,2008-05-28T07:57:49.799,-1602.05, 7918815,  86.38, -21.69, 2574218, 2574207, 2574095, 2574204, 2574251,     100,    2.14,   0.097,   13.25,   33.65,    0.17
167015357,2008-05-28T07:57:53.833,-1598.02, 7896301,  86.47, -21.67, 2574223, 2574207, 2574068, 2574176, 2574257,     122,    1.11,   0.086,   12.94,   31.34,    0.08
167015358,2008-05-28T07:57:58.629,-1593.22, 7869589,  86.58, -21.65, 2574247, 2574193, 2574076, 2574184, 2574280,     109,    1.37,   0.090,   13.60,   31.76,    0.12
167015359,2008-05-28T07:58:02.663,-1589.19, 7847225,  86.66, -21.66, 2574224, 2574143, 2574056, 2574163, 2574257,      89,    1.15,   0.086,   12.16,   29.85,    0.09
167015360,2008-05-28T07:58:06.697,-1585.15, 7824770,  86.70, -21.66, 2574232, 2574181, 2574064, 2574170, 2574265,     111,    0.83,   0.068,   10.02,   27.43,    0.01
167015361,2008-05-28T07:58:10.731,-1581.12, 7802316,  86.75, -21.67, 2574239, 2574171, 2574072, 2574178, 2574272,     103,    1.16,   0.061,   11.08,   29.47,    0.03
167015362,2008-05-28T07:58:14.765,-1577.08, 7779891,  86.80, -21.67, 2574292, 2574188, 2574093, 2574198, 2574325,      92,    1.52,   0.075,   13.07,   31.62,    0.09
167015363,2008-05-28T07:58:18.799,-1573.05, 7757437,  86.85, -21.67, 2574240, 2574202, 2574093, 2574199, 2574272,      94,    1.59,   0.088,   13.40,   32.97,    0.10
167015364,2008-05-28T07:58:22.833,-1569.02, 7735012,  86.90, -21.64, 2574218, 2574207, 2574087, 2574192, 2574251,     112,    1.53,   0.071,   11.60,   30.37,    0.14
167015365,2008-05-28T07:58:27.629,-1564.22, 7708421,  86.96, -21.59, 2574223, 2574180, 2574083, 2574187, 2574256,      88,    1.04,   0.038,   11.78,   24.39,    0.03
167015366,2008-05-28T07:58:31.663,-1560.19, 7686027,  87.01, -21.54, 2574211, 2574177, 2574100, 2574203, 2574245,      65,    1.03,   0.029,   13.25,   22.12,    0.11
167015367,2008-05-28T07:58:35.697,-1556.15, 7663602,  87.06, -21.51, 2574282, 2574216, 2574082, 2574184, 2574315,     112,    0.77,   0.040,   10.86,   28.24,    0.00
167015368,2008-05-28T07:58:39.731,-1552.12, 7641268,  87.12, -21.47, 2574241, 2574183, 2574094, 2574196, 2574274,      80,    0.82,   0.063,   12.46,   27.79,    0.01
167015369,2008-05-28T07:58:43.765,-1548.08, 7618843,  87.18, -21.44, 2574254, 2574196, 2574119, 2574222, 2574286,      68,    1.99,   0.073,   14.93,   34.55,    0.20
167015370,2008-05-28T07:58:47.799,-1544.05, 7596479,  87.23, -21.43, 2574244, 2574226, 2574133, 2574235, 2574277,      72,    1.89,   0.060,   14.82,   33.80,    0.18
167015371,2008-05-28T07:58:51.833,-1540.02, 7574084,  87.30, -21.42, 2574258, 2574204, 2574103, 2574204, 2574290,      86,    1.16,   0.050,   12.39,   30.48,    0.11
167015372,2008-05-28T07:58:56.630,-1535.22, 7547522,  87.36, -21.41, 2574251, 2574207, 2574093, 2574194, 2574284,     100,    1.28,   0.031,   10.46,   26.55,    0.04
167015373,2008-05-28T07:59:00.663,-1531.19, 7525128,  87.43, -21.40, 2574245, 2574238, 2574134, 2574234, 2574278,      85,    1.41,   0.032,   13.16,   31.64,    0.14
167015374,2008-05-28T07:59:04.697,-1527.15, 7502823,  87.48, -21.40, 2574256, 2574246, 2574129, 2574229, 2574289,      93,    1.38,   0.029,   13.76,   32.64,    0.09
167015375,2008-05-28T07:59:08.731,-1523.12, 7480519,  87.55, -21.39, 2574260, 2574236, 2574129, 2574228, 2574292,      90,    1.57,   0.047,   13.04,   32.06,    0.11
167015376,2008-05-28T07:59:12.765,-1519.08, 7458244,  87.61, -21.38, 2574265, 2574219, 2574131, 2574229, 2574296,      83,    1.60,   0.058,   12.66,   28.59,    0.11
167015377,2008-05-28T07:59:16.799,-1515.05, 7435850,  87.67, -21.37, 2574271, 2574244, 2574123, 2574221, 2574302,     103,    0.75,   0.071,   12.18,   29.36,    0.08
167015378,2008-05-28T07:59:20.833,-1511.02, 7413575,  87.74, -21.36, 2574315, 2574255, 2574144, 2574242, 2574346,      92,    1.70,   0.084,   13.42,   33.12,    0.11
167015379,2008-05-28T07:59:25.630,-1506.22, 7387164,  87.81, -21.34, 2574335, 2574215, 2574107, 2574205, 2574366,     103,    0.91,   0.100,   11.18,   27.86,    0.09
167015380,2008-05-28T07:59:29.664,-1502.19, 7364829,  87.86, -21.32, 2574287, 2574251, 2574148, 2574246, 2574317,      90,    1.49,   0.092,   12.45,   30.91,    0.15
167015381,2008-05-28T07:59:33.698,-1498.15, 7342674,  87.91, -21.28, 2574255, 2574185, 2574109, 2574206, 2574286,      78,    0.20,   0.066,   10.03,   20.55,    0.15
167015382,2008-05-28T07:59:37.731,-1494.12, 7320250,  87.96, -21.25, 2574314, 2574245, 2574129, 2574225, 2574345,      95,    0.99,   0.047,   11.12,   28.52,    0.03
167015383,2008-05-28T07:59:41.765,-1490.08, 7298005,  88.00, -21.22, 2574345, 2574237, 2574141, 2574237, 2574376,      78,    0.44,   0.031,   12.82,   28.36,    0.02
167015384,2008-05-28T07:59:45.799,-1486.05, 7275761,  88.03, -21.21, 2574369, 2574269, 2574184, 2574279, 2574400,      79,    1.91,   0.067,   13.54,   33.99,    0.18
167015385,2008-05-28T07:59:49.833,-1482.02, 7253516,  88.05, -21.21, 2574396, 2574254, 2574156, 2574253, 2574424,      87,    1.13,   0.131,   13.42,   31.31,    0.12
167015386,2008-05-28T07:59:54.629,-1477.22, 7227104,  88.12, -21.20, 2574341, 2574292, 2574182, 2574279, 2574369,      88,    1.63,   0.140,   13.67,   34.08,    0.12
167015387,2008-05-28T07:59:58.663,-1473.19, 7204919,  88.20, -21.19, 2574350, 2574268, 2574165, 2574262, 2574379,      84,    1.47,   0.135,   12.86,   34.07,    0.11
167015388,2008-05-28T08:00:02.697,-1469.15, 7182705,  88.28, -21.16, 2574324, 2574269, 2574159, 2574254, 2574352,     100,    1.35,   0.116,   11.81,   29.44,    0.12
167015389,2008-05-28T08:00:06.731,-1465.12, 7160460,  88.36, -21.13, 2574344, 2574293, 2574178, 2574272, 2574373,      94,    1.40,   0.099,   11.55,   30.92,    0.04
167015390,2008-05-28T08:00:10.765,-1461.08, 7138395,  88.45, -21.10, 2574314, 2574228, 2574140, 2574233, 2574343,      85,    1.02,   0.085,   11.37,   29.27,    0.13
167015391,2008-05-28T08:00:14.798,-1457.05, 7116091,  88.53, -21.07, 2574301, 2574293, 2574194, 2574287, 2574330,      81,    1.76,   0.084,   13.33,   32.98,    0.14
167015392,2008-05-28T08:00:18.832,-1453.02, 7093966,  88.61, -21.05, 2574312, 2574282, 2574183, 2574276, 2574341,      82,    1.79,   0.094,   12.98,   33.23,    0.14
167015393,2008-05-28T08:00:23.628,-1448.22, 7067585,  88.68, -21.02, 2574334, 2574294, 2574210, 2574302, 2574363,      76,    2.00,   0.081,   14.12,   34.71,    0.17
167015394,2008-05-28T08:00:27.662,-1444.19, 7045490,  88.73, -21.00, 2574307, 2574286, 2574201, 2574293, 2574336,      72,    1.72,   0.076,   13.67,   32.25,    0.17
167015395,2008-05-28T08:00:31.696,-1440.15, 7023365,  88.79, -20.98, 2574327, 2574278, 2574179, 2574270, 2574356,      87,    1.19,   0.078,   12.69,   31.34,    0.08
167015396,2008-05-28T08:00:35.730,-1436.12, 7001211,  88.85, -20.95, 2574349, 2574294, 2574192, 2574283, 2574378,      86,    1.26,   0.076,   13.00,   32.04,    0.11
167015397,2008-05-28T08:00:39.764,-1432.08, 6979116,  88.91, -20.93, 2574374, 2574262, 2574164, 2574254, 2574403,      90,    0.71,   0.076,   10.43,   27.65,    0.08
167015398,2008-05-28T08:00:43.798,-1428.05, 6957051,  88.98, -20.91, 2574342, 2574248, 2574174, 2574263, 2574370,      83,    0.99,   0.076,   10.78,   26.23,    0.08
167015399,2008-05-28T08:00:47.832,-1424.02, 6934897,  89.04, -20.85, 2574312, 2574278, 2574212, 2574301, 2574341,      55,    1.27,   0.031,   12.41,   26.68,    0.16
167015400,2008-05-28T08:00:52.628,-1419.22, 6908665,  89.11, -20.79, 2574333, 2574282, 2574189, 2574277, 2574363,      79,    0.78,   0.018,    7.14,   23.92,    0.00
167015401,2008-05-28T08:00:57.628,-1414.22, 6881264,  89.18, -20.72, 2574358, 2574301, 2574193, 2574281, 2574386,      91,    1.44,   0.073,   11.65,   31.70,    0.05
167015402,2008-05-28T08:01:01.662,-1410.19, 6859229,  89.26, -20.69, 2574386, 2574286, 2574198, 2574286, 2574414,      76,    1.15,   0.081,   12.10,   31.92,    0.07
167015403,2008-05-28T08:01:05.696,-1406.15, 6837164,  89.34, -20.67, 2574439, 2574283, 2574198, 2574286, 2574467,      84,    0.90,   0.080,   11.77,   29.57,    0.07
167015404,2008-05-28T08:01:09.730,-1402.12, 6815159,  89.39, -20.65, 2574406, 2574284, 2574191, 2574278, 2574434,      88,    1.01,   0.069,   11.37,   29.03,    0.09
167015405,2008-05-28T08:01:13.764,-1398.08, 6793095,  89.44, -20.64, 2574375, 2574305, 2574213, 2574299, 2574403,      80,    1.31,   0.052,   12.90,   31.66,    0.13
167015406,2008-05-28T08:01:17.798,-1394.05, 6771090,  89.50, -20.63, 2574393, 2574287, 2574199, 2574285, 2574421,      78,    0.57,   0.036,   10.18,   26.35,    0.00
167015407,2008-05-28T08:01:21.832,-1390.02, 6749085,  89.55, -20.62, 2574399, 2574295, 2574203, 2574288, 2574427,      79,    0.63,   0.042,   10.37,   26.92,    0.01
167015408,2008-05-28T08:01:26.628,-1385.22, 6722913,  89.63, -20.61, 2574430, 2574320, 2574227, 2574312, 2574458,      80,    1.06,   0.048,   11.83,   30.26,    0.09
167015409,2008-05-28T08:01:30.662,-1381.19, 6700939,  89.68, -20.60, 2574422, 2574300, 2574222, 2574307, 2574450,      74,    0.74,   0.066,   11.16,   27.78,    0.10
167015410,2008-05-28T08:01:34.696,-1377.15, 6678964,  89.75, -20.59, 2574463, 2574319, 2574234, 2574318, 2574490,      79,    0.99,   0.082,   11.46,   30.64,    0.11
167015411,2008-05-28T08:01:38.730,-1373.12, 6657049,  89.82, -20.58, 2574493, 2574320, 2574237, 2574322, 2574519,      73,    0.90,   0.104,   12.61,   31.96,    0.15
167015412,2008-05-28T08:01:42.764,-1369.08, 6635074,  89.89, -20.57, 2574436, 2574306, 2574234, 2574318, 2574462,      71,    1.17,   0.114,   12.04,   31.49,    0.11
167015413,2008-05-28T08:01:46.798,-1365.05, 6613099,  89.98, -20.55, 2574405, 2574331, 2574266, 2574350, 2574431,      55,    2.18,   0.114,   14.26,   36.43,    0.22
167015414,2008-05-28T08:01:50.832,-1361.02, 6591155,  90.07, -20.52, 2574431, 2574334, 2574258, 2574341, 2574457,      66,    1.64,   0.098,   14.29,   35.38,    0.15
167015415,2008-05-28T08:01:55.629,-1356.22, 6565132,  90.18, -20.44, 2574409, 2574337, 2574245, 2574326, 2574436,      79,    1.17,   0.052,   12.92,   31.75,    0.12
167015416,2008-05-28T08:01:59.662,-1352.19, 6543277,  90.26, -20.39, 2574369, 2574288, 2574216, 2574298, 2574396,      60,    0.30,   0.053,   11.26,   27.43,    0.08
167015417,2008-05-28T08:02:03.696,-1348.15, 6521303,  90.33, -20.36, 2574484, 2574340, 2574240, 2574321, 2574512,      84,    0.68,   0.045,   11.41,   30.46,    0.01
167015418,2008-05-28T08:02:07.730,-1344.12, 6499478,  90.38, -20.32, 2574386, 2574319, 2574259, 2574340, 2574414,      51,    0.99,   0.037,   12.33,   28.50,    0.15
167015419,2008-05-28T08:02:11.764,-1340.08, 6477563,  90.45, -20.28, 2574450, 2574361, 2574265, 2574345, 2574477,      81,    1.43,   0.046,   12.66,   32.29,    0.10
167015420,2008-05-28T08:02:15.798,-1336.05, 6455738,  90.51, -20.25, 2574436, 2574339, 2574255, 2574335, 2574462,      82,    0.99,   0.058,   12.59,   29.65,    0.09
167015421,2008-05-28T08:02:19.832,-1332.02, 6433853,  90.57, -20.21, 2574396, 2574325, 2574259, 2574339, 2574422,      62,    1.64,   0.064,   12.73,   31.85,    0.14
167015422,2008-05-28T08:02:24.628,-1327.22, 6407891,  90.62, -20.19, 2574457, 2574344, 2574253, 2574332, 2574483,      80,    0.89,   0.067,   11.83,   28.98,    0.09
167015423,2008-05-28T08:02:28.662,-1323.19, 6386097,  90.66, -20.18, 2574503, 2574369, 2574285, 2574365, 2574528,      70,    1.43,   0.094,   13.21,   34.18,    0.15
167015424,2008-05-28T08:02:32.695,-1319.15, 6364332,  90.71, -20.17, 2574495, 2574339, 2574262, 2574342, 2574519,      68,    1.11,   0.122,   12.58,   33.66,    0.11
167015425,2008-05-28T08:02:36.729,-1315.12, 6342507,  90.78, -20.17, 2574581, 2574349, 2574262, 2574342, 2574605,      76,    0.33,   0.130,   11.52,   31.87,    0.08
167015426,2008-05-28T08:02:40.763,-1311.09, 6320712,  90.87, -20.15, 2574537, 2574372, 2574290, 2574369, 2574562,      66,    1.03,   0.114,   12.70,   32.85,    0.12
167015427,2008-05-28T08:02:44.797,-1307.05, 6298947,  90.97, -20.14, 2574559, 2574364, 2574283, 2574361, 2574583,      70,    0.20,   0.096,   13.10,   31.80,    0.07
167015428,2008-05-28T08:02:48.831,-1303.02, 6277212,  91.07, -20.13, 2574593, 2574344, 2574291, 2574368, 2574617,      80,   -0.79,   0.097,   12.02,   26.69,    0.02
167015429,2008-05-28T08:02:53.628,-1298.22, 6251459,  91.17, -20.09, 2574659, 2574368, 2574286, 2574362, 2574683,      97,   -0.43,   0.081,   10.76,   27.84,    0.05
167015430,2008-05-28T08:02:57.662,-1294.19, 6229635,  91.25, -20.05, 2574533, 2574360, 2574298, 2574374, 2574558,      70,   -0.02,   0.071,   12.16,   27.25,    0.02
167015431,2008-05-28T08:03:01.696,-1290.15, 6207930,  91.33, -20.02, 2574564, 2574360, 2574297, 2574373, 2574589,      87,   -0.26,   0.061,   10.62,   24.77,    0.05
167015432,2008-05-28T08:03:05.730,-1286.12, 6186225,  91.41, -19.98, 2574547, 2574345, 2574300, 2574375, 2574572,      86,   -0.58,   0.051,    9.85,   22.32,    0.13
167015433,2008-05-28T08:03:09.763,-1282.09, 6164550,  91.49, -19.95, 2574506, 2574386, 2574305, 2574379, 2574531,      81,    0.64,   0.043,   11.30,   25.93,    0.04
167015434,2008-05-28T08:03:13.797,-1278.05, 6142845,  91.57, -19.91, 2574418, 2574377, 2574312, 2574387, 2574444,      66,    0.59,   0.041,   10.57,   21.55,    0.14
167015435,2008-05-28T08:03:17.831,-1274.02, 6121200,  91.66, -19.88, 2574569, 2574388, 2574331, 2574404, 2574594,      69,   -0.28,   0.043,   11.28,   25.08,    0.01
167015436,2008-05-28T08:03:22.627,-1269.22, 6095448,  91.75, -19.83, 2574426, 2574398, 2574327, 2574401, 2574451,      54,    0.31,   0.036,    9.89,   20.12,    0.12